Regional Weather Roundup
Issued by NWS

Home | Current Version | Previous Version | Graphics & Text | Print | Product List | Glossary On
Versions: 1 2 3 4 5 6 7 8 9 10 11 12 13 14 15 16 17 18 19 20 21 22 23 24 25 26 27
000
ASUS45 KBOU 211407
RWRCO

WEATHER ROUNDUP FOR COLORADO
NATIONAL WEATHER SERVICE DENVER/BOULDER CO
700 AM MST TUE FEB 21 2017

NOTE: "FAIR" INDICATES FEW OR NO CLOUDS BELOW 12000 FEET WITH NO
SIGNIFICANT WEATHER AND/OR OBSTRUCTIONS TO VISIBILITY.

COZ001>005-013-030-031-211500-
...NORTHWEST COLORADO...

CITY           SKY/WX    TMP DP  RH WIND       PRES   REMARKS
CRAIG          MOCLDY    41  30  65 SW13      30.19R
HAYDEN         CLOUDY    37  27  65 SE3       30.20R
MEEKER         FAIR      42  31  64 W6        30.22S
MOUNT WERNER   NOT AVBL
STEAMBOAT SPGS CLOUDY    37  28  68 E7        30.20R
WALDEN         NOT AVBL
$$

COZ006>008-011-211500-
...WEST CENTRAL VALLEYS...

CITY           SKY/WX    TMP DP  RH WIND       PRES   REMARKS
GRAND JUNCTION CLOUDY    42  35  76 E9        30.26S
MONTROSE       FAIR      38  30  73 SE12      30.33S
EAGLE          MOCLDY    36  28  75 E6        30.29S
RIFLE          CLOUDY    39  36  89 CALM      30.26S
DELTA          FAIR      40  34  78 CALM      30.31S
NUCLA          FAIR      41  32  70 E3        30.37S
$$

COZ017>023-064>068-211500-
...SOUTHWEST COLORADO...

CITY           SKY/WX    TMP DP  RH WIND       PRES   REMARKS
DURANGO        FAIR      32  27  81 CALM      30.40R
CORTEZ         FAIR      35  34  96 CALM      30.38R
PAGOSA SPRINGS CLOUDY    30  29  94 CALM      30.42S
TELLURIDE      FAIR      32  24  73 CALM      30.41S
WOLF CREEK PAS SNOW      19  19 100 SW9       30.49S VSB<1/4 WCI   9
$$

COZ009-010-012-014-032>034-037-058>063-211500-
...CENTRAL COLORADO...

CITY           SKY/WX    TMP DP  RH WIND       PRES   REMARKS
ASPEN          FAIR      27  21  78 SW6       30.28F WCI  20
BUENA VISTA    MOCLDY    35  22  61 NW9       30.31S WCI  27
COPPER MTN     FAIR      28  21  74 MISG      30.36S
BERTHOUD PASS  FAIR      19  10  68 W26G33    30.30F WCI   1
COTTONWOOD PAS FAIR      37  21  52 SW16G25   30.33S
GUNNISON       FAIR      22  19  89 CALM      30.40S
KREMMLING      CLOUDY    43  30  61 S5        30.25S
LEADVILLE      FAIR      21  17  84 S5        30.32S WCI  15
MONARCH PASS   FOG       23  21  93 SW21G26   30.51S VSB<1/4 WCI   8
SALIDA         FAIR      44  26  50 W13       30.38R
SUNLIGHT       NOT AVBL
WILKERSON PASS FAIR      27  19  74 W9G17     30.38S WCI  17
$$

COZ069>075-211500-
...SAN LUIS VALLEY/SANGRE DE CRISTO MOUNTAINS...

CITY           SKY/WX    TMP DP  RH WIND       PRES   REMARKS
ALAMOSA        FAIR      22  20  92 N5        30.36R WCI  16
LA VETA PASS   FAIR      28  21  74 NE33G43   30.33R WCI  12
SAGUACHE       NOT AVBL
$$

COZ035-036-038>040-211500-
...NORTHERN COLORADO FRONT RANGE...

CITY           SKY/WX    TMP DP  RH WIND       PRES   REMARKS
DENVER INTL AP FAIR      39  19  44 VRB3      30.05R
DMNS CITY PARK   N/A     56  19  24 W6G13     30.05R
AURORA         PTCLDY    53  20  27 W20       30.07S
FRONT RANGE AP CLEAR     45  19  36 SW12      30.06
ERIE MUNI ARPT FAIR      57  21  24 W32G44    30.00S
BOULDER MUN AP FAIR      55  25  30 W31G43    30.02F
CENTENNIAL     FAIR      50  18  28 W12       30.08S
BROOMFIELD     PTCLDY    57  19  23 W38G52    30.01R
FORT COLLINS   FAIR      52  26  36 N12G23    30.01S
LONGMONT       FAIR      58  25  28 W32G40    30.02S
$$

COZ041-046-047-076>085-087-088-211500-
...PIKES PEAK/PALMER DIVIDE AND SOUTHERN FOOTHILLS...

CITY           SKY/WX    TMP DP  RH WIND       PRES   REMARKS
COLO. SPRINGS  FAIR      55  17  22 NW40G51   30.08R
A. F. ACADEMY  FAIR      49  18  29 NW10G18   30.13R
SCHRIEVER AFB  FAIR      51  17  26 W21G31    30.11R
ELLICOTT       FAIR     N/A N/A N/A MISG      30.11R
FALCON         FAIR      49  16  26 W17G28    30.13R
FORT CARSON    FAIR      45  12  25 SW3       30.10R
LIMON          FAIR      32  17  54 NE7       30.08R WCI  26
MONUMENT HILL  FAIR      45  18  33 W18       30.14R
TRINIDAD       FAIR      41  17  38 NW7       30.15R
$$

COZ042>045-048>051-090-091-211500-
...NORTHEAST COLORADO...

CITY           SKY/WX    TMP DP  RH WIND       PRES   REMARKS
GREELEY ARPT   FAIR      31  21  66 CALM      30.02S
AKRON          FAIR      43  17  35 W14       30.02R
BURLINGTON     FAIR      40  18  41 W9        30.02R
WRAY           NOT AVBL
STERLING       FAIR      27  19  74 S7        30.00R WCI  19
HOLYOKE        FAIR      37  21  52 NW7       30.00R
FORT MORGAN    FAIR      32  16  50 CALM      30.02S
$$

COZ086-089-092>099-211500-
...SOUTHEAST COLORADO...

CITY           SKY/WX    TMP DP  RH WIND       PRES   REMARKS
PUEBLO         FAIR      55  24  30 W28G35    30.08R
LA JUNTA       FAIR      41  18  39 SW10      30.06S
LAMAR          FAIR      31  17  56 CALM      30.03R
SPRINGFIELD      N/A     33  17  51 W7        30.06R WCI  27
$$




USA.gov is the U.S. government's official web portal to all federal, state and local government web resources and services.